• In Uzbekistan
  • List of Countries
  • For 7 days
  • Water Temperature
  • Satellite Maps
  • Weather Map
  • Weather Widgets
  • user-avatar
    Login

    Hourly Weather Batumi

    Today, 10 December, Monday

    Time Temperature Precipitation Wind Pressure Humidity
    00:00 +10°C° 0 mm 4 mps 763 mmHg 63%
    01:00 +10°C° 0 mm 4 mps 763 mmHg 63%
    02:00 +10°C° 0 mm 4 mps 762 mmHg 63%
    03:00 +10°C° 0 mm 4 mps 762 mmHg 65%
    04:00 +10°C° 0 mm 4 mps 762 mmHg 65%
    05:00 +10°C° 0 mm 4 mps 762 mmHg 65%
    06:00 +10°C° 0 mm 4 mps 762 mmHg 65%
    07:00 +9°C° 0 mm 5 mps 761 mmHg 65%
    08:00 +10°C° 0 mm 5 mps 761 mmHg 64%
    09:00 +12°C° 0 mm 5 mps 761 mmHg 64%
    10:00 +13°C° 0 mm 5 mps 760 mmHg 63%
    11:00 +15°C° 0 mm 4 mps 759 mmHg 62%
    12:00 +17°C° 0 mm 4 mps 759 mmHg 60%
    13:00 +17°C° 0 mm 3 mps 759 mmHg 62%
    14:00 +17°C° 0 mm 3 mps 759 mmHg 63%
    15:00 +17°C° 0 mm 3 mps 758 mmHg 65%
    16:00 +16°C° 0.3 mm 3 mps 759 mmHg 68%
    17:00 +14°C° 0.3 mm 3 mps 760 mmHg 71%
    18:00 +13°C° 0.3 mm 3 mps 760 mmHg 74%
    19:00 +13°C° 0.5 mm 3 mps 760 mmHg 75%
    20:00 +13°C° 0.5 mm 4 mps 760 mmHg 75%
    21:00 +13°C° 0.5 mm 4 mps 760 mmHg 76%
    22:00 +13°C° 0.2 mm 5 mps 760 mmHg 76%
    23:00 +13°C° 0.2 mm 5 mps 760 mmHg 76%

    Tomorrow, 11 December, Tuesday

    Time Temperature Precipitation Wind Pressure Humidity
    00:00 +13°C° 0.2 mm 5 mps 760 mmHg 76%
    01:00 +13°C° 0.2 mm 5 mps 759 mmHg 76%
    02:00 +13°C° 0.2 mm 5 mps 759 mmHg 75%
    03:00 +13°C° 0.2 mm 5 mps 759 mmHg 75%
    04:00 +13°C° 0.1 mm 6 mps 758 mmHg 75%
    05:00 +13°C° 0.1 mm 6 mps 758 mmHg 74%
    06:00 +13°C° 0.1 mm 6 mps 757 mmHg 74%
    07:00 +13°C° 0.1 mm 6 mps 757 mmHg 74%
    08:00 +13°C° 0.1 mm 6 mps 756 mmHg 73%
    09:00 +14°C° 0.1 mm 6 mps 756 mmHg 73%
    10:00 +14°C° 0.1 mm 6 mps 755 mmHg 72%
    11:00 +15°C° 0.1 mm 6 mps 754 mmHg 71%
    12:00 +15°C° 0.1 mm 6 mps 754 mmHg 70%
    13:00 +15°C° 0.2 mm 5 mps 754 mmHg 71%
    14:00 +15°C° 0.2 mm 5 mps 754 mmHg 72%
    15:00 +15°C° 0.2 mm 5 mps 754 mmHg 73%
    16:00 +15°C° 0.8 mm 5 mps 755 mmHg 77%
    17:00 +14°C° 0.8 mm 4 mps 756 mmHg 81%
    18:00 +13°C° 0.8 mm 4 mps 757 mmHg 85%
    19:00 +13°C° 2.7 mm 4 mps 757 mmHg 87%
    20:00 +13°C° 2.7 mm 4 mps 758 mmHg 89%
    21:00 +12°C° 2.7 mm 3 mps 758 mmHg 91%
    22:00 +12°C° 1.2 mm 3 mps 759 mmHg 90%
    23:00 +12°C° 1.2 mm 3 mps 760 mmHg 90%

    Day after tomorrow, 12 December, Wednesday

    Time Temperature Precipitation Wind Pressure Humidity
    00:00 +13°C° 1.2 mm 2 mps 760 mmHg 89%
    01:00 +12°C° 0.5 mm 2 mps 760 mmHg 89%
    02:00 +12°C° 0.5 mm 2 mps 761 mmHg 88%
    03:00 +12°C° 0.5 mm 2 mps 761 mmHg 88%
    04:00 +12°C° 0.4 mm 2 mps 761 mmHg 88%
    05:00 +12°C° 0.4 mm 2 mps 761 mmHg 87%
    06:00 +10°C° 0.4 mm 2 mps 760 mmHg 87%
    07:00 +11°C° 0.2 mm 3 mps 760 mmHg 85%
    08:00 +11°C° 0.2 mm 3 mps 760 mmHg 83%
    09:00 +11°C° 0.2 mm 4 mps 760 mmHg 82%
    10:00 +11°C° 0.2 mm 4 mps 759 mmHg 81%
    11:00 +12°C° 0.2 mm 4 mps 758 mmHg 81%
    12:00 +12°C° 0.2 mm 5 mps 757 mmHg 80%
    13:00 +12°C° 0.6 mm 4 mps 756 mmHg 82%
    14:00 +12°C° 0.6 mm 4 mps 755 mmHg 83%
    15:00 +12°C° 0.6 mm 3 mps 755 mmHg 84%
    16:00 +11°C° 0.5 mm 3 mps 755 mmHg 85%
    17:00 +11°C° 0.5 mm 4 mps 755 mmHg 86%
    18:00 +10°C° 0.5 mm 5 mps 755 mmHg 86%
    19:00 +10°C° 1.7 mm 5 mps 756 mmHg 89%
    20:00 +9°C° 1.7 mm 5 mps 756 mmHg 91%
    21:00 +9°C° 1.7 mm 5 mps 757 mmHg 94%
    22:00 +9°C° 2.2 mm 5 mps 758 mmHg 94%
    23:00 +9°C° 2.2 mm 5 mps 758 mmHg 95%

    13 December, Thursday

    Time Temperature Precipitation Wind Pressure Humidity
    00:00 +8°C° 2.2 mm 5 mps 759 mmHg 95%
    01:00 +8°C° 2.4 mm 5 mps 760 mmHg 95%
    02:00 +8°C° 2.4 mm 5 mps 761 mmHg 96%
    03:00 +7°C° 2.4 mm 5 mps 761 mmHg 96%
    04:00 +7°C° 2.5 mm 5 mps 762 mmHg 96%
    05:00 +7°C° 2.5 mm 5 mps 763 mmHg 95%
    06:00 +7°C° 2.5 mm 5 mps 763 mmHg 95%
    07:00 +6°C° 1.7 mm 5 mps 764 mmHg 95%
    08:00 +6°C° 1.7 mm 4 mps 765 mmHg 95%
    09:00 +6°C° 1.7 mm 4 mps 766 mmHg 94%
    10:00 +6°C° 1.2 mm 4 mps 766 mmHg 94%
    11:00 +6°C° 1.2 mm 4 mps 766 mmHg 93%
    12:00 +7°C° 1.2 mm 4 mps 766 mmHg 92%
    13:00 +8°C° 1 mm 3 mps 767 mmHg 92%
    14:00 +7°C° 1 mm 3 mps 767 mmHg 92%
    15:00 +7°C° 1 mm 3 mps 767 mmHg 92%
    16:00 +7°C° 0.5 mm 3 mps 768 mmHg 92%
    17:00 +6°C° 0.5 mm 2 mps 768 mmHg 92%
    18:00 +6°C° 0.5 mm 2 mps 769 mmHg 92%
    19:00 +5°C° 0.2 mm 2 mps 769 mmHg 90%
    20:00 +5°C° 0.2 mm 2 mps 770 mmHg 88%
    21:00 +4°C° 0.2 mm 2 mps 770 mmHg 87%
    22:00 +4°C° 0 mm 2 mps 770 mmHg 84%
    23:00 +2°C° 0 mm 3 mps 771 mmHg 82%

    14 December, Friday

    Time Temperature Precipitation Wind Pressure Humidity
    00:00 +1°C° 0 mm 3 mps 771 mmHg 80%
    01:00 +1°C° 0 mm 3 mps 771 mmHg 78%
    02:00 0°C° 0 mm 4 mps 770 mmHg 77%
    03:00 +1°C° 0 mm 4 mps 770 mmHg 75%
    04:00 +1°C° 0 mm 4 mps 770 mmHg 75%
    05:00 +1°C° 0 mm 4 mps 770 mmHg 75%
    06:00 +3°C° 0 mm 4 mps 769 mmHg 75%
    07:00 +3°C° 0 mm 4 mps 769 mmHg 75%
    08:00 +4°C° 0 mm 4 mps 769 mmHg 75%
    09:00 +4°C° 0 mm 4 mps 770 mmHg 74%
    10:00 +5°C° 0 mm 3 mps 769 mmHg 74%
    11:00 +7°C° 0 mm 3 mps 769 mmHg 74%
    12:00 +8°C° 0 mm 2 mps 769 mmHg 75%
    13:00 +8°C° 0.1 mm 2 mps 769 mmHg 75%
    14:00 +8°C° 0.1 mm 2 mps 769 mmHg 76%
    15:00 +8°C° 0.1 mm 2 mps 769 mmHg 77%
    16:00 +7°C° 0 mm 2 mps 770 mmHg 78%
    17:00 +5°C° 0 mm 2 mps 771 mmHg 78%
    18:00 +4°C° 0 mm 2 mps 771 mmHg 79%
    19:00 +3°C° 0 mm 2 mps 772 mmHg 77%
    20:00 +2°C° 0 mm 3 mps 772 mmHg 76%
    21:00 +1°C° 0 mm 3 mps 773 mmHg 74%
    22:00 +1°C° 0 mm 3 mps 773 mmHg 73%
    23:00 +1°C° 0 mm 3 mps 773 mmHg 71%

    15 December, Saturday

    Time Temperature Precipitation Wind Pressure Humidity
    00:00 +1°C° 0 mm 3 mps 773 mmHg 70%
    01:00 +1°C° 0 mm 3 mps 773 mmHg 70%
    02:00 +1°C° 0 mm 3 mps 773 mmHg 69%
    03:00 0°C° 0 mm 4 mps 773 mmHg 69%
    04:00 0°C° 0 mm 4 mps 773 mmHg 69%
    05:00 0°C° 0 mm 4 mps 773 mmHg 69%
    06:00 0°C° 0 mm 4 mps 773 mmHg 69%
    07:00 +2°C° 0 mm 3 mps 773 mmHg 71%
    08:00 +3°C° 0 mm 3 mps 773 mmHg 74%
    09:00 +4°C° 0 mm 3 mps 773 mmHg 76%
    10:00 +5°C° 0 mm 3 mps 772 mmHg 77%
    11:00 +8°C° 0 mm 2 mps 772 mmHg 77%
    12:00 +9°C° 0 mm 2 mps 771 mmHg 77%
    13:00 +9°C° 0.1 mm 2 mps 771 mmHg 78%
    14:00 +9°C° 0.1 mm 2 mps 771 mmHg 80%
    15:00 +9°C° 0.1 mm 2 mps 771 mmHg 81%
    16:00 +8°C° 0.2 mm 2 mps 771 mmHg 83%
    17:00 +7°C° 0.2 mm 2 mps 772 mmHg 84%
    18:00 +7°C° 0.2 mm 2 mps 772 mmHg 85%
    19:00 +6°C° 0.2 mm 2 mps 772 mmHg 85%
    20:00 +6°C° 0.2 mm 2 mps 772 mmHg 85%
    21:00 +6°C° 0.2 mm 2 mps 773 mmHg 84%
    22:00 +6°C° 0.1 mm 2 mps 773 mmHg 84%
    23:00 +6°C° 0.1 mm 2 mps 773 mmHg 84%
    Show more